Find Starlink 32668

NORAD ID: 62212 Int'l Des: 2024-229 Owner: SPXS Country: US Constellation: starlink operational
LEOCIRCULAR

实时位置

正在加载3D地球...

关于 Starlink 32668

正在加载描述...

即将过境

Passes for default location (London). Set your location on the main map for personalized predictions.

高度历史

Loading altitude history...

两行轨道根数

1 62212U 24229W 26121.55348551 .00021539 00000-0 78946-3 0 9997
2 62212 42.9981 328.9339 0000689 285.6802 74.3974 15.27600810 78682
Epoch: May 1, 2026 • Age: 11 hours

当前状态

高度 495.6 km
速度 7.62 km/s
星下点 -42.63°S, 28.83°E
发射日期 Dec 4, 2024
运行时间 1.4 years
类型 internet

技术详情

分类 Payload
质量 730.00 kg
干质量 700.00 kg
总质量 730.00 kg
长度 0.30 m
直径 4.10 m
跨度 29.00 m
形状 Box + pan
制造商 SPXS
平台类型 Starlink V2M
阶段状态 In Orbit
所有者/国家 SPXS/US

Most Searched